Shelbyville, IN

4:27 PM EST on December 12, 2019 (GMT -0500)
Shelbyville Municipal

Weather History for KGEZ - October, 2019

Change the Weather History Date:

Saturday, October 5, 2019

  Actual Average Record
Temperature  
Mean Temperature 63 °F 58 °F  
Max Temperature 78 °F 70 °F 87 °F (2007)
Min Temperature 47 °F 46 °F 35 °F (1999)
Degree Days  
Heating Degree Days 2 8  
Month to date heating degree days 7 38  
Since 1 July heating degree days 10 123  
Cooling Degree Days 0 1  
Month to date cooling degree days 36 5  
Year to date cooling degree days 1330 904  
Growing Degree Days 12 (Base 50)    
Moisture  
Dew Point 45 °F    
Average Humidity 57    
Maximum Humidity 86    
Minimum Humidity 28    
Precipitation  
Precipitation T in 0.10 in 2.28 in (2017)
Month to date precipitation T 0.58  
Year to date precipitation 32.21 34.03  
Sea Level Pressure  
Sea Level Pressure 30.10 in    
Wind  
Wind Speed 6 mph (East)    
Max Wind Speed 12 mph    
Max Gust Speed 19 mph    
Visibility 10 miles    
Events      
T = Trace of Precipitation, MM = Missing Value Source: NWS Daily Summary

Daily Weather History Graph

Daily Weather History Graph

Search for Another Location

Airport or City:

Astronomy

Oct. 05, 2019 Rise Set
Actual Time 7:43 AM EDT 7:19 PM EDT
Civil Twilight 7:16 AM EDT 7:46 PM EDT
Nautical Twilight 6:44 AM EDT 8:17 PM EDT
Astronomical Twilight 6:13 AM EDT 8:48 PM EDT
Moon 3:06 PM EDT (10/5) No Moon Set
Length of Visible Light 12h 30m
Length of Day
11h 36m
Waxing Crescent, 50% of the Moon is Illuminated
Oct 5
Waxing Crescent
Oct 5
First Quarter
Oct 13
Full
Oct 21
Last Quarter
Oct 27
New

Hourly Weather History & Observations

Time (EDT) Temp. Dew Point Humidity Pressure Visibility Wind Dir Wind Speed Gust Speed Precip Events Conditions
12:53 AM 52.0 °F 43.0 °F 71% 30.25 in 10.0 mi ENE 8.1 mph - N/A   Clear
1:53 AM 51.1 °F 44.1 °F 77% 30.24 in 10.0 mi ENE 8.1 mph - N/A   Clear
2:53 AM 51.1 °F 44.1 °F 77% 30.22 in 10.0 mi ENE 9.2 mph - N/A   Clear
3:53 AM 48.9 °F 44.1 °F 83% 30.21 in 10.0 mi ENE 8.1 mph - N/A   Clear
4:53 AM 48.9 °F 44.1 °F 83% 30.20 in 10.0 mi ENE 6.9 mph - N/A   Clear
5:53 AM 48.9 °F 44.1 °F 83% 30.18 in 10.0 mi East 8.1 mph - N/A   Clear
6:53 AM 48.0 °F 43.0 °F 83% 30.19 in 10.0 mi ENE 5.8 mph - N/A   Clear
7:53 AM 46.9 °F 43.0 °F 86% 30.19 in 10.0 mi ENE 4.6 mph - N/A   Clear
8:53 AM 51.1 °F 44.1 °F 77% 30.20 in 10.0 mi ENE 4.6 mph - N/A   Clear
9:53 AM 55.0 °F 44.1 °F 67% 30.17 in 10.0 mi East 9.2 mph - N/A   Clear
10:53 AM 61.0 °F 45.0 °F 56% 30.15 in 10.0 mi Variable 5.8 mph - N/A   Clear
11:53 AM 66.0 °F 46.0 °F 48% 30.11 in 10.0 mi ESE 10.4 mph - N/A   Clear
12:53 PM 70.0 °F 46.0 °F 42% 30.09 in 10.0 mi East 9.2 mph - N/A   Clear
1:53 PM 73.0 °F 45.0 °F 37% 30.05 in 10.0 mi SE 11.5 mph - N/A   Clear
2:53 PM 75.0 °F 43.0 °F 32% 30.03 in 10.0 mi Variable 6.9 mph - N/A   Clear
3:53 PM 75.9 °F 44.1 °F 32% 30.01 in 10.0 mi South 5.8 mph - N/A   Clear
4:53 PM 77.0 °F 41.0 °F 28% 30.00 in 10.0 mi South 5.8 mph - N/A   Clear
5:53 PM 77.0 °F 42.1 °F 29% 29.98 in 10.0 mi Variable 4.6 mph - N/A   Clear
6:53 PM 71.1 °F 45.0 °F 39% 29.96 in 10.0 mi South 3.5 mph - N/A   Clear
7:53 PM 64.9 °F 46.0 °F 50% 29.98 in 10.0 mi Calm Calm - N/A   Clear
8:53 PM 61.0 °F 46.9 °F 60% 29.98 in 10.0 mi Calm Calm - N/A   Clear
9:53 PM 60.1 °F 48.9 °F 67% 29.99 in 10.0 mi Calm Calm - N/A   Partly Cloudy
10:53 PM 63.0 °F 48.0 °F 58% 29.96 in 10.0 mi ESE 4.6 mph - N/A   Overcast
11:53 PM 62.1 °F 53.1 °F 72% 29.98 in 10.0 mi Calm Calm - 0.00 in   Partly Cloudy